Regional Weather Roundup
Issued by NWS Sioux Falls, SD

Home | Current Version | Previous Version | Text Only | Print | Product List | Glossary On
Versions: 1 2 3 4 5 6 7 8 9 10 11 12 13 14 15 16 17 18 19 20 21 22 23 24 25 26 27 28 29 30 31 32 33 34 35 36 37 38 39 40 41 42 43 44 45 46 47 48 49 50
000
ASUS43 KFSD 022210
RWRFSD

WEATHER ROUNDUP FOR SE SOUTH DAKOTA/SW MINNESOTA/NW IOWA
NATIONAL WEATHER SERVICE SIOUX FALLS SD
500 PM CDT WED SEP 02 2015

NOTE: "FAIR" INDICATES FEW OR NO CLOUDS BELOW 12,000 FEET WITH NO
SIGNIFICANT WEATHER AND OR OBSTRUCTIONS TO VISIBILITY.


SDZ038>040-050-052>070-022300-
SOUTHEAST SOUTH DAKOTA

CITY           SKY/WX    TMP DP  RH WIND       PRES   REMARKS
BROOKINGS      PTSUNNY   84  72  65 S12       29.83S
CHAMBERLAIN    SUNNY     93  73  51 SE7       29.73F HX 102
HURON          MOSUNNY   91  72  53 SE13      29.73F HX  98
MADISON        FAIR      82  79  89 S12       29.82S
MITCHELL       SUNNY     92  75  57 SE13      29.75F HX 103
SIOUX FALLS    PTSUNNY   86  73  65 S14G20    29.80F
WINNER         FAIR     100  55  22 S16       29.74F HX  98
YANKTON        SUNNY     90  72  55 SE16G22   29.77S HX  96
$$

MNZ071-072-080-081-089-090-097-098-022300-
SOUTHWEST MINNESOTA

CITY           SKY/WX    TMP DP  RH WIND       PRES   REMARKS
FAIRMONT       SUNNY     84  70  61 S12       29.85S
JACKSON        SUNNY     86  72  62 S13       29.86S
LUVERNE        MOSUNNY   84  72  65 S7        29.83S
MARSHALL       MOSUNNY   88  72  58 S9        29.84R
MONTEVIDEO     MOSUNNY   88  75  66 SE13G18   29.83F HX  97
PIPESTONE      PTSUNNY   84  73  70 S10G16    29.84S
REDWOOD FALLS  MOSUNNY   86  73  65 E8        29.82F
TRACY          MOSUNNY   86  74  67 S7        29.84S HX  95
WINDOM         SUNNY     86  72  62 CALM      29.85S
WORTHINGTON    MOSUNNY   84  72  65 S14       29.84F
$$

IAZ001>003-012>014-020>022-031-032-NEZ013-014-SDZ071-022300-
NORTHWEST IOWA

CITY           SKY/WX    TMP DP  RH WIND       PRES   REMARKS
CHEROKEE       SUNNY     85  72  66 S14       29.84F
DENISON        SUNNY     84  73  70 S8G15     29.84F
ESTHERVILLE    SUNNY     83  72  69 S13       29.85F
LE MARS        SUNNY     86  73  66 S17       29.83S
ORANGE CITY    SUNNY     84  72  65 S16       29.83F
SHELDON        SUNNY     84  73  70 S12G17    29.83S
SIOUX CITY     SUNNY     87  68  52 S14       29.82F
SPENCER        SUNNY     85  71  63 S12       29.85F
STORM LAKE     SUNNY     82  73  74 SW14      29.87S
$$

ABBREVIATIONS USED IN REMARKS
   TC - TEMPERATURE IN CELSIUS
  WCI - WIND CHILL INDEX
   HX - HEAT INDEX
  VSB - VISIBILITY



USA.gov is the U.S. government's official web portal to all federal, state and local government web resources and services.